BAW590 EGLL-LIMC

Flight info

Callsign BAW590
Flight time 1h 33m
Altitude 37000
Route MODMI M185 MID UL612 VEULE DCT TEPRI UN491 POGZI DCT GELTA DCT LUVAL DCT SHARA DCT DEVDI DCT RIPUS DCT GERSA DCT SOSON DCT DEGAD DCT BASGO/N0460F290 Z424 AKASU/N0390F190 Z424 RIXUV
Aircraft A320/M-SDE3FGHIRWY/LB1

Departure

Time 2026-05-06 20:43
Airport London Heathrow Airport (EGLL)

Arrival

Time 2026-05-06 22:17
Airport Milan Malpensa International Airport (LIMC)
Time Latitude Longitude Altitude Speed Heading
2026-05-06 20:07 51.46931 -0.48647 86 ft 0 kts 360°
2026-05-06 20:37 51.46912 -0.48647 90 ft 4 kts 360°
2026-05-06 20:37 51.46891 -0.48647 89 ft 4 kts 346°
2026-05-06 20:37 51.46877 -0.48627 86 ft 4 kts 272°
2026-05-06 20:37 51.46877 -0.48593 86 ft 1 kts 270°
2026-05-06 20:38 51.46877 -0.48592 86 ft 0 kts 270°
2026-05-06 20:40 51.46877 -0.48593 86 ft 0 kts 270°
2026-05-06 20:40 51.46877 -0.48636 86 ft 6 kts 270°
2026-05-06 20:40 51.46877 -0.48711 86 ft 4 kts 270°
2026-05-06 20:40 51.46856 -0.48755 88 ft 6 kts 188°
2026-05-06 20:41 51.46804 -0.48750 86 ft 9 kts 179°
2026-05-06 20:41 51.46737 -0.48749 86 ft 11 kts 179°
2026-05-06 20:41 51.46673 -0.48748 86 ft 7 kts 179°
2026-05-06 20:41 51.46617 -0.48757 89 ft 9 kts 199°
2026-05-06 20:42 51.46550 -0.48788 88 ft 11 kts 186°
2026-05-06 20:42 51.46482 -0.48729 87 ft 12 kts 116°
2026-05-06 20:42 51.46478 -0.48595 86 ft 11 kts 89°
2026-05-06 20:42 51.46480 -0.48292 88 ft 57 kts 90°
2026-05-06 20:43 51.46483 -0.47315 87 ft 115 kts 89°
2026-05-06 20:43 51.46487 -0.45777 90 ft 160 kts 90°
2026-05-06 20:43 51.46490 -0.43879 395 ft 176 kts 87°
2026-05-06 20:43 51.46506 -0.41899 1064 ft 180 kts 88°
2026-05-06 20:44 51.46247 -0.39857 1453 ft 202 kts 113°
2026-05-06 20:44 51.45375 -0.37926 1711 ft 230 kts 142°
2026-05-06 20:44 51.43810 -0.36964 2103 ft 256 kts 168°
2026-05-06 20:44 51.42039 -0.36312 2864 ft 264 kts 164°
2026-05-06 20:45 51.40221 -0.35887 3772 ft 268 kts 184°
2026-05-06 20:45 51.38428 -0.36681 4667 ft 271 kts 206°
2026-05-06 20:45 51.36728 -0.37997 5551 ft 274 kts 207°
2026-05-06 20:45 51.35017 -0.39350 5887 ft 275 kts 208°
2026-05-06 20:46 51.33303 -0.40714 5994 ft 275 kts 207°
2026-05-06 20:46 51.31596 -0.42068 6004 ft 274 kts 207°
2026-05-06 20:46 51.29881 -0.43423 6597 ft 276 kts 207°
2026-05-06 20:46 51.28154 -0.44781 7472 ft 278 kts 207°
2026-05-06 20:47 51.26408 -0.46154 8297 ft 281 kts 207°
2026-05-06 20:47 51.24554 -0.47199 9088 ft 287 kts 188°
2026-05-06 20:47 51.22550 -0.47005 9855 ft 294 kts 163°
2026-05-06 20:47 51.20636 -0.45730 10358 ft 308 kts 156°
2026-05-06 20:48 51.18617 -0.44246 10545 ft 331 kts 155°
2026-05-06 20:48 51.16459 -0.42644 10698 ft 353 kts 155°
2026-05-06 20:48 51.14198 -0.40966 11165 ft 363 kts 155°
2026-05-06 20:48 51.11897 -0.39261 11798 ft 367 kts 155°
2026-05-06 20:49 51.09567 -0.37543 12437 ft 370 kts 155°
2026-05-06 20:49 51.07218 -0.35821 13096 ft 374 kts 155°
2026-05-06 20:49 51.04842 -0.34082 13763 ft 377 kts 155°
2026-05-06 20:49 51.02446 -0.32328 14362 ft 381 kts 156°
2026-05-06 20:50 51.00031 -0.30561 14945 ft 384 kts 156°
2026-05-06 20:50 50.97595 -0.28783 15514 ft 387 kts 156°
2026-05-06 20:50 50.95145 -0.26999 16092 ft 389 kts 156°
2026-05-06 20:50 50.92676 -0.25201 16679 ft 392 kts 156°
2026-05-06 20:51 50.90182 -0.23385 17281 ft 395 kts 156°
2026-05-06 20:51 50.87673 -0.21562 17884 ft 398 kts 156°
2026-05-06 20:51 50.85143 -0.19729 18469 ft 402 kts 156°
2026-05-06 20:51 50.82590 -0.17885 19013 ft 405 kts 156°
2026-05-06 20:52 50.80024 -0.16032 19568 ft 408 kts 156°
2026-05-06 20:52 50.77433 -0.14162 20117 ft 410 kts 156°
2026-05-06 20:52 50.74827 -0.12279 20641 ft 413 kts 156°
2026-05-06 20:52 50.72202 -0.10383 21132 ft 416 kts 156°
2026-05-06 20:53 50.69564 -0.08484 21614 ft 419 kts 156°
2026-05-06 20:53 50.66900 -0.06572 22067 ft 422 kts 157°
2026-05-06 20:53 50.64222 -0.04651 22506 ft 424 kts 157°
2026-05-06 20:53 50.61531 -0.02719 22959 ft 427 kts 156°
2026-05-06 20:54 50.58822 -0.00770 23390 ft 429 kts 156°
2026-05-06 20:54 50.56101 0.01188 23783 ft 431 kts 156°
2026-05-06 20:54 50.53365 0.03151 24134 ft 434 kts 156°
2026-05-06 20:54 50.50646 0.05090 24478 ft 436 kts 157°
2026-05-06 20:55 50.47844 0.07080 24823 ft 438 kts 157°
2026-05-06 20:55 50.45057 0.09056 25156 ft 440 kts 157°
2026-05-06 20:55 50.42263 0.11040 25488 ft 442 kts 157°
2026-05-06 20:55 50.39494 0.13004 25811 ft 444 kts 156°
2026-05-06 20:56 50.36671 0.15009 26150 ft 446 kts 156°
2026-05-06 20:56 50.33837 0.17020 26468 ft 448 kts 156°
2026-05-06 20:56 50.30951 0.19059 26797 ft 451 kts 156°
2026-05-06 20:56 50.28124 0.21054 27111 ft 453 kts 156°
2026-05-06 20:57 50.25248 0.23078 27426 ft 455 kts 157°
2026-05-06 20:57 50.22365 0.25108 27846 ft 454 kts 156°
2026-05-06 20:57 50.19564 0.27382 28303 ft 454 kts 149°
2026-05-06 20:57 50.16925 0.30090 28728 ft 454 kts 147°
2026-05-06 20:58 50.14292 0.32815 29174 ft 453 kts 147°
2026-05-06 20:58 50.11661 0.35528 29622 ft 453 kts 147°
2026-05-06 20:58 50.09032 0.38224 30072 ft 452 kts 147°
2026-05-06 20:58 50.06403 0.40904 30467 ft 451 kts 147°
2026-05-06 20:59 50.03779 0.43578 30863 ft 451 kts 147°
2026-05-06 20:59 50.01162 0.46245 31266 ft 450 kts 147°
2026-05-06 20:59 49.98547 0.48909 31683 ft 449 kts 147°
2026-05-06 20:59 49.95935 0.51572 32095 ft 448 kts 147°
2026-05-06 21:00 49.93335 0.54220 32488 ft 447 kts 147°
2026-05-06 21:00 49.90731 0.56867 32879 ft 447 kts 147°
2026-05-06 21:00 49.88129 0.59508 33284 ft 447 kts 147°
2026-05-06 21:00 49.86449 0.61342 33549 ft 446 kts 142°
2026-05-06 21:01 49.84150 0.64571 33950 ft 446 kts 133°
2026-05-06 21:01 49.82064 0.68123 34286 ft 445 kts 132°
2026-05-06 21:01 49.79983 0.71668 34592 ft 445 kts 132°
2026-05-06 21:01 49.77895 0.75210 34880 ft 445 kts 133°
2026-05-06 21:02 49.75800 0.78750 35162 ft 446 kts 133°
2026-05-06 21:02 49.73708 0.82278 35435 ft 446 kts 133°
2026-05-06 21:02 49.71608 0.85812 35701 ft 446 kts 133°
2026-05-06 21:02 49.69510 0.89341 35962 ft 446 kts 133°
2026-05-06 21:03 49.67408 0.92877 36229 ft 447 kts 133°
2026-05-06 21:03 49.65308 0.96409 36487 ft 447 kts 133°
2026-05-06 21:03 49.63208 0.99938 36740 ft 447 kts 133°
2026-05-06 21:03 49.61105 1.03471 36951 ft 447 kts 133°
2026-05-06 21:04 49.58995 1.07013 37007 ft 451 kts 133°
2026-05-06 21:04 49.54711 1.14183 37004 ft 457 kts 133°
2026-05-06 21:05 49.50388 1.21373 37002 ft 458 kts 133°
2026-05-06 21:05 49.46066 1.28549 37002 ft 458 kts 133°
2026-05-06 21:06 49.41739 1.35721 37005 ft 458 kts 133°
2026-05-06 21:06 49.37403 1.42882 37007 ft 458 kts 133°
2026-05-06 21:07 49.33059 1.50034 37011 ft 458 kts 133°
2026-05-06 21:07 49.28714 1.57177 37018 ft 458 kts 133°
2026-05-06 21:08 49.24442 1.64176 37006 ft 459 kts 133°
2026-05-06 21:08 49.20079 1.71299 37005 ft 459 kts 134°
2026-05-06 21:09 49.15708 1.78425 37003 ft 459 kts 134°
2026-05-06 21:09 49.11339 1.85531 37005 ft 459 kts 134°
2026-05-06 21:10 49.06956 1.92622 37021 ft 459 kts 134°
2026-05-06 21:10 49.02570 1.99699 37019 ft 459 kts 134°
2026-05-06 21:11 48.98185 2.06770 37014 ft 459 kts 134°
2026-05-06 21:11 48.93796 2.13825 37011 ft 459 kts 134°
2026-05-06 21:12 48.89400 2.20873 37017 ft 459 kts 134°
2026-05-06 21:12 48.85034 2.27859 37017 ft 459 kts 134°
2026-05-06 21:13 48.80637 2.34872 37018 ft 458 kts 134°
2026-05-06 21:13 48.76237 2.41864 37018 ft 458 kts 134°
2026-05-06 21:14 48.71824 2.48849 37017 ft 459 kts 134°
2026-05-06 21:14 48.67415 2.55814 37017 ft 459 kts 134°
2026-05-06 21:15 48.63002 2.62777 37017 ft 458 kts 134°
2026-05-06 21:15 48.58671 2.69846 37021 ft 458 kts 127°
2026-05-06 21:16 48.55733 2.78335 37016 ft 459 kts 107°
2026-05-06 21:16 48.54816 2.87830 36985 ft 459 kts 92°
2026-05-06 21:17 48.54507 2.97462 36983 ft 459 kts 93°
2026-05-06 21:17 48.54165 3.07091 36980 ft 460 kts 93°
2026-05-06 21:18 48.53827 3.16729 36977 ft 460 kts 93°
2026-05-06 21:18 48.53493 3.26372 36979 ft 460 kts 94°
2026-05-06 21:19 48.53138 3.36021 36978 ft 460 kts 94°
2026-05-06 21:19 48.52771 3.45597 36980 ft 460 kts 94°
2026-05-06 21:20 48.52399 3.55237 36978 ft 461 kts 94°
2026-05-06 21:20 48.52023 3.64882 36976 ft 461 kts 94°
2026-05-06 21:21 48.51636 3.74535 36984 ft 461 kts 94°
2026-05-06 21:21 48.51244 3.84176 36979 ft 461 kts 94°
2026-05-06 21:22 48.50840 3.93826 36976 ft 461 kts 94°
2026-05-06 21:22 48.50231 4.03428 36975 ft 460 kts 103°
2026-05-06 21:23 48.48583 4.12727 36983 ft 459 kts 106°
2026-05-06 21:23 48.46883 4.22012 36977 ft 459 kts 106°
2026-05-06 21:24 48.45181 4.31288 36976 ft 459 kts 106°
2026-05-06 21:24 48.43474 4.40562 36972 ft 460 kts 106°
2026-05-06 21:25 48.41768 4.49838 36968 ft 460 kts 106°
2026-05-06 21:25 48.40042 4.59116 36970 ft 460 kts 107°
2026-05-06 21:26 48.38301 4.68382 36973 ft 460 kts 107°
2026-05-06 21:26 48.36560 4.77649 36969 ft 460 kts 107°
2026-05-06 21:27 48.34815 4.86905 36961 ft 461 kts 107°
2026-05-06 21:27 48.33059 4.96168 36966 ft 461 kts 107°
2026-05-06 21:28 48.31293 5.05425 36962 ft 461 kts 107°
2026-05-06 21:28 48.29511 5.14673 36968 ft 461 kts 107°
2026-05-06 21:29 48.27707 5.23910 36958 ft 461 kts 108°
2026-05-06 21:29 48.25844 5.33112 36961 ft 461 kts 108°
2026-05-06 21:30 48.23983 5.42241 36966 ft 461 kts 108°
2026-05-06 21:30 48.22113 5.51438 36956 ft 461 kts 108°
2026-05-06 21:31 48.20248 5.60626 36953 ft 461 kts 108°
2026-05-06 21:31 48.18378 5.69818 36953 ft 461 kts 108°
2026-05-06 21:32 48.16491 5.78998 36954 ft 461 kts 109°
2026-05-06 21:32 48.13637 5.92751 36954 ft 461 kts 109°
2026-05-06 21:33 48.11732 6.01914 36945 ft 461 kts 109°
2026-05-06 21:33 48.09824 6.11075 36946 ft 461 kts 109°
2026-05-06 21:34 48.07898 6.20229 36947 ft 461 kts 109°
2026-05-06 21:34 48.05968 6.29369 36946 ft 461 kts 109°
2026-05-06 21:35 48.04031 6.38513 36941 ft 461 kts 109°
2026-05-06 21:35 48.02084 6.47654 36942 ft 462 kts 109°
2026-05-06 21:36 48.00131 6.56788 36940 ft 462 kts 110°
2026-05-06 21:36 47.98164 6.65921 36946 ft 462 kts 110°
2026-05-06 21:37 47.96004 6.74939 36949 ft 461 kts 114°
2026-05-06 21:37 47.93559 6.83712 36937 ft 461 kts 115°
2026-05-06 21:38 47.91062 6.92519 36939 ft 462 kts 115°
2026-05-06 21:38 47.88625 7.01371 36942 ft 462 kts 115°
2026-05-06 21:39 47.86218 7.10250 36945 ft 462 kts 114°
2026-05-06 21:39 47.83794 7.19108 36922 ft 462 kts 115°
2026-05-06 21:40 47.81349 7.27944 36947 ft 462 kts 115°
2026-05-06 21:40 47.78900 7.36789 36949 ft 462 kts 115°
2026-05-06 21:41 47.76450 7.45607 36954 ft 462 kts 115°
2026-05-06 21:41 47.74356 7.52979 36982 ft 461 kts 119°
2026-05-06 21:42 47.70258 7.62093 36966 ft 456 kts 129°
2026-05-06 21:42 47.66498 7.69677 36974 ft 456 kts 129°
2026-05-06 21:43 47.62743 7.77259 36978 ft 456 kts 129°
2026-05-06 21:43 47.58972 7.84819 36978 ft 456 kts 129°
2026-05-06 21:44 47.55195 7.92363 36974 ft 456 kts 129°
2026-05-06 21:44 47.51439 7.99844 36967 ft 456 kts 130°
2026-05-06 21:45 47.47656 8.07371 36960 ft 457 kts 130°
2026-05-06 21:45 47.43863 8.14905 36961 ft 457 kts 130°
2026-05-06 21:46 47.40066 8.22429 36965 ft 457 kts 130°
2026-05-06 21:46 47.36258 8.29940 36965 ft 457 kts 130°
2026-05-06 21:47 47.32445 8.37437 36946 ft 457 kts 130°
2026-05-06 21:47 47.28396 8.44602 36948 ft 451 kts 142°
2026-05-06 21:48 47.24108 8.48790 36945 ft 443 kts 159°
2026-05-06 21:48 47.17280 8.51284 36946 ft 434 kts 177°
2026-05-06 21:49 47.11264 8.52148 36952 ft 435 kts 177°
2026-05-06 21:49 47.06216 8.52879 36959 ft 435 kts 177°
2026-05-06 21:50 47.00190 8.53763 36974 ft 435 kts 177°
2026-05-06 21:50 46.94168 8.54631 36977 ft 435 kts 178°
2026-05-06 21:51 46.88191 8.55482 36982 ft 435 kts 177°
2026-05-06 21:51 46.82171 8.56346 36980 ft 434 kts 178°
2026-05-06 21:52 46.76167 8.57207 36974 ft 433 kts 178°
2026-05-06 21:52 46.70200 8.58066 36970 ft 426 kts 178°
2026-05-06 21:53 46.64330 8.58898 36973 ft 423 kts 178°
2026-05-06 21:53 46.61402 8.59311 36476 ft 423 kts 179°
2026-05-06 21:53 46.58476 8.59725 35010 ft 429 kts 179°
2026-05-06 21:54 46.55492 8.60148 33650 ft 430 kts 178°
2026-05-06 21:54 46.52523 8.60575 32149 ft 428 kts 179°
2026-05-06 21:54 46.49563 8.60987 30572 ft 427 kts 181°
2026-05-06 21:54 46.46638 8.60944 29508 ft 410 kts 189°
2026-05-06 21:55 46.43889 8.60337 28667 ft 393 kts 195°
2026-05-06 21:55 46.41312 8.59215 27711 ft 381 kts 203°
2026-05-06 21:55 46.38896 8.57588 26749 ft 389 kts 210°
2026-05-06 21:55 46.36565 8.55519 25862 ft 393 kts 212°
2026-05-06 21:56 46.34272 8.53449 25305 ft 386 kts 212°
2026-05-06 21:56 46.31998 8.51412 24642 ft 384 kts 211°
2026-05-06 21:56 46.29651 8.49606 23995 ft 382 kts 203°
2026-05-06 21:56 46.27127 8.48418 23314 ft 381 kts 194°
2026-05-06 21:57 46.24505 8.47892 22599 ft 380 kts 185°
2026-05-06 21:57 46.21866 8.48010 21969 ft 379 kts 177°
2026-05-06 21:57 46.19243 8.48388 21310 ft 378 kts 177°
2026-05-06 21:57 46.16631 8.48760 20666 ft 377 kts 177°
2026-05-06 21:58 46.14022 8.49129 20025 ft 378 kts 177°
2026-05-06 21:58 46.11410 8.49619 19388 ft 380 kts 171°
2026-05-06 21:58 46.08870 8.50681 18807 ft 382 kts 163°
2026-05-06 21:58 46.06422 8.52017 18243 ft 381 kts 162°
2026-05-06 21:59 46.03952 8.53358 18046 ft 368 kts 162°
2026-05-06 21:59 46.01603 8.54631 17899 ft 353 kts 162°
2026-05-06 21:59 45.99375 8.55833 17768 ft 340 kts 163°
2026-05-06 21:59 45.97171 8.57019 17622 ft 327 kts 163°
2026-05-06 22:00 45.95101 8.58130 17481 ft 317 kts 163°
2026-05-06 22:00 45.93056 8.59226 17199 ft 311 kts 163°
2026-05-06 22:00 45.91017 8.60188 16930 ft 305 kts 171°
2026-05-06 22:00 45.88928 8.60505 16667 ft 300 kts 184°
2026-05-06 22:01 45.86870 8.60149 16407 ft 297 kts 194°
2026-05-06 22:01 45.84841 8.59549 16026 ft 298 kts 194°
2026-05-06 22:01 45.82805 8.58959 15551 ft 299 kts 193°
2026-05-06 22:01 45.80757 8.58374 15072 ft 301 kts 193°
2026-05-06 22:02 45.78705 8.57791 14713 ft 299 kts 193°
2026-05-06 22:02 45.76652 8.57205 14294 ft 299 kts 193°
2026-05-06 22:02 45.74605 8.56749 13963 ft 299 kts 185°
2026-05-06 22:02 45.72526 8.56938 13570 ft 301 kts 175°
2026-05-06 22:03 45.70451 8.57348 13156 ft 300 kts 175°
2026-05-06 22:03 45.68381 8.57747 12771 ft 300 kts 175°
2026-05-06 22:03 45.66316 8.58139 12379 ft 299 kts 175°
2026-05-06 22:03 45.64258 8.58530 11981 ft 298 kts 175°
2026-05-06 22:04 45.62227 8.58916 11500 ft 290 kts 175°
2026-05-06 22:04 45.60281 8.59290 11214 ft 276 kts 175°
2026-05-06 22:04 45.58393 8.59651 10715 ft 272 kts 175°
2026-05-06 22:04 45.56549 8.60056 10430 ft 268 kts 172°
2026-05-06 22:05 45.54705 8.60547 10065 ft 271 kts 171°
2026-05-06 22:05 45.52856 8.61074 9767 ft 270 kts 171°
2026-05-06 22:05 45.51011 8.61607 9420 ft 269 kts 171°
2026-05-06 22:05 45.49188 8.62130 9144 ft 267 kts 171°
2026-05-06 22:06 45.47369 8.62645 8816 ft 266 kts 171°
2026-05-06 22:06 45.45553 8.63156 8505 ft 265 kts 171°
2026-05-06 22:06 45.43761 8.63656 8297 ft 256 kts 171°
2026-05-06 22:06 45.42058 8.64132 8018 ft 247 kts 171°
2026-05-06 22:07 45.40392 8.64593 7795 ft 243 kts 171°
2026-05-06 22:07 45.38738 8.65047 7505 ft 241 kts 171°
2026-05-06 22:07 45.37095 8.65500 7228 ft 240 kts 171°
2026-05-06 22:07 45.35462 8.65948 6949 ft 239 kts 171°
2026-05-06 22:08 45.33834 8.66394 6662 ft 238 kts 171°
2026-05-06 22:08 45.32216 8.66842 6381 ft 236 kts 171°
2026-05-06 22:08 45.30619 8.67287 6203 ft 230 kts 171°
2026-05-06 22:08 45.29097 8.67710 6073 ft 222 kts 171°
2026-05-06 22:09 45.27612 8.68246 5940 ft 216 kts 156°
2026-05-06 22:09 45.26432 8.69548 5810 ft 218 kts 128°
2026-05-06 22:09 45.25840 8.71529 5680 ft 222 kts 98°
2026-05-06 22:09 45.26019 8.73687 5556 ft 225 kts 68°
2026-05-06 22:10 45.26932 8.75430 5429 ft 225 kts 37°
2026-05-06 22:10 45.28337 8.76365 5307 ft 225 kts 15°
2026-05-06 22:10 45.29839 8.76999 5180 ft 225 kts 15°
2026-05-06 22:10 45.31341 8.77628 5055 ft 225 kts 15°
2026-05-06 22:11 45.32840 8.78258 4914 ft 225 kts 15°
2026-05-06 22:11 45.34334 8.78889 4723 ft 224 kts 16°
2026-05-06 22:11 45.35825 8.79520 4553 ft 223 kts 16°
2026-05-06 22:11 45.37348 8.79876 4373 ft 221 kts 357°
2026-05-06 22:12 45.38880 8.79785 4242 ft 217 kts 355°
2026-05-06 22:12 45.40340 8.79551 4156 ft 205 kts 349°
2026-05-06 22:12 45.41725 8.79204 4016 ft 200 kts 348°
2026-05-06 22:12 45.43089 8.78834 3881 ft 200 kts 348°
2026-05-06 22:13 45.44452 8.78460 3758 ft 198 kts 348°
2026-05-06 22:13 45.45800 8.78090 3628 ft 197 kts 348°
2026-05-06 22:13 45.47137 8.77723 3542 ft 193 kts 348°
2026-05-06 22:13 45.48437 8.77367 3360 ft 188 kts 348°
2026-05-06 22:14 45.49716 8.77015 3127 ft 186 kts 348°
2026-05-06 22:14 45.50976 8.76669 2884 ft 182 kts 349°
2026-05-06 22:14 45.52188 8.76335 2633 ft 174 kts 349°
2026-05-06 22:14 45.53361 8.76012 2427 ft 171 kts 351°
2026-05-06 22:15 45.54502 8.75698 2186 ft 159 kts 351°
2026-05-06 22:15 45.55549 8.75409 1976 ft 149 kts 352°
2026-05-06 22:15 45.56549 8.75135 1777 ft 144 kts 351°
2026-05-06 22:15 45.57527 8.74856 1593 ft 143 kts 349°
2026-05-06 22:16 45.58494 8.74591 1380 ft 140 kts 351°
2026-05-06 22:16 45.59446 8.74336 1203 ft 139 kts 349°
2026-05-06 22:16 45.60386 8.74080 1002 ft 137 kts 349°
2026-05-06 22:16 45.61318 8.73825 836 ft 136 kts 348°
2026-05-06 22:17 45.62228 8.73571 742 ft 123 kts 349°
2026-05-06 22:17 45.62902 8.73381 737 ft 74 kts 349°
2026-05-06 22:17 45.63281 8.73278 738 ft 48 kts 349°
2026-05-06 22:17 45.63540 8.73204 742 ft 31 kts 345°
2026-05-06 22:18 45.63725 8.73061 742 ft 30 kts 321°
2026-05-06 22:18 45.63834 8.72877 740 ft 22 kts 305°
2026-05-06 22:18 45.63904 8.72737 741 ft 8 kts 306°
2026-05-06 22:18 45.63920 8.72706 741 ft 2 kts 307°
2026-05-06 22:19 45.63927 8.72693 741 ft 5 kts 307°
2026-05-06 22:19 45.63953 8.72592 739 ft 13 kts 277°
2026-05-06 22:19 45.63941 8.72447 740 ft 16 kts 260°
2026-05-06 22:19 45.63923 8.72275 741 ft 19 kts 264°
2026-05-06 22:20 45.63912 8.72074 740 ft 22 kts 267°
2026-05-06 22:20 45.63895 8.71895 741 ft 16 kts 253°
2026-05-06 22:20 45.63812 8.71821 741 ft 16 kts 167°
2026-05-06 22:20 45.63692 8.71853 740 ft 19 kts 169°
2026-05-06 22:21 45.63554 8.71890 741 ft 21 kts 168°
2026-05-06 22:21 45.63400 8.71935 741 ft 24 kts 169°
2026-05-06 22:21 45.63227 8.71982 739 ft 26 kts 169°
2026-05-06 22:21 45.63052 8.72030 741 ft 23 kts 169°
2026-05-06 22:22 45.62887 8.72076 741 ft 25 kts 169°
2026-05-06 22:22 45.62730 8.72119 741 ft 13 kts 169°
2026-05-06 22:22 45.62681 8.72061 741 ft 11 kts 259°
2026-05-06 22:22 45.62664 8.71936 740 ft 14 kts 259°
2026-05-06 22:23 45.62644 8.71784 741 ft 17 kts 259°
2026-05-06 22:23 45.62629 8.71668 741 ft 5 kts 269°
2026-05-06 22:23 45.62662 8.71643 741 ft 7 kts 349°
2026-05-06 22:23 45.62702 8.71632 741 ft 2 kts 349°
2026-05-06 22:24 45.62706 8.71631 741 ft 0 kts 348°